Time,TemperatureF,DewpointF,PressureIn,WindDirection,WindDirectionDegrees,WindSpeedMPH,WindSpeedGustMPH,Humidity,HourlyPrecipIn,Conditions,Clouds,dailyrainin,SolarRadiationWatts/m^2,SoftwareType,DateUTC
2013-03-18 00:00:00,35.5,34.0,30.40,SSW,192,4.0,5.0,94,0.00,,SCT,0.00,0.00,VWS V14.01,2013-03-18 04:00:00,
2013-03-18 00:05:00,35.4,34.1,30.40,South,184,5.0,5.0,95,0.00,,SCT,0.00,0.00,VWS V14.01,2013-03-18 04:05:00,
2013-03-18 00:10:00,35.4,34.1,30.40,SSW,192,1.0,5.0,95,0.00,,SCT,0.00,0.00,VWS V14.01,2013-03-18 04:10:00,
2013-03-18 00:15:00,35.4,34.1,30.40,SSW,192,2.0,5.0,95,0.00,,SCT,0.00,0.00,VWS V14.01,2013-03-18 04:15:00,
2013-03-18 00:20:00,35.3,34.0,30.39,South,187,5.0,5.0,95,0.00,,SCT,0.00,0.00,VWS V14.01,2013-03-18 04:20:00,
2013-03-18 00:25:00,35.3,34.0,30.39,SSW,198,2.0,5.0,95,0.00,,SCT,0.00,0.00,VWS V14.01,2013-03-18 04:25:00,
2013-03-18 00:30:00,35.3,34.0,30.40,SSW,204,1.0,5.0,95,0.00,,SCT,0.00,0.00,VWS V14.01,2013-03-18 04:30:00,
2013-03-18 00:35:00,35.3,34.0,30.40,SSW,199,4.0,7.0,95,0.00,,SCT,0.00,0.00,VWS V14.01,2013-03-18 04:35:00,
2013-03-18 00:40:00,35.3,34.0,30.40,South,182,3.0,7.0,95,0.00,,SCT,0.00,0.00,VWS V14.01,2013-03-18 04:40:00,
2013-03-18 00:45:00,35.3,34.0,30.40,SSW,199,2.0,7.0,95,0.00,,SCT,0.00,0.00,VWS V14.01,2013-03-18 04:45:00,
2013-03-18 00:50:00,35.2,33.9,30.40,South,190,4.0,7.0,95,0.00,,SCT,0.00,0.00,VWS V14.01,2013-03-18 04:50:00,
2013-03-18 00:55:00,35.2,33.9,30.40,SSW,201,4.0,4.0,95,0.00,,SCT,0.00,0.00,VWS V14.01,2013-03-18 04:55:00,
2013-03-18 01:00:00,35.1,33.8,30.40,SSW,210,2.0,5.0,95,0.00,,SCT,0.00,0.00,VWS V14.01,2013-03-18 05:00:00,
2013-03-18 01:05:00,35.1,33.8,30.40,South,180,3.0,5.0,95,0.00,,SCT,0.00,0.00,VWS V14.01,2013-03-18 05:05:00,
2013-03-18 01:10:00,35.1,33.8,30.40,South,173,2.0,6.0,95,0.00,,SCT,0.00,0.00,VWS V14.01,2013-03-18 05:10:00,
2013-03-18 01:15:00,35.1,33.8,30.40,South,176,5.0,7.0,95,0.00,,SCT,0.00,0.00,VWS V14.01,2013-03-18 05:15:00,
2013-03-18 01:20:00,35.0,33.7,30.40,South,190,2.0,7.0,95,0.00,,SCT,0.00,0.00,VWS V14.01,2013-03-18 05:20:00,
2013-03-18 01:25:00,35.0,33.7,30.40,SSW,211,4.0,7.0,95,0.00,,SCT,0.00,0.00,VWS V14.01,2013-03-18 05:25:00,
2013-03-18 01:30:00,35.0,33.7,30.40,South,182,2.0,7.0,95,0.00,,SCT,0.00,0.00,VWS V14.01,2013-03-18 05:30:00,
2013-03-18 01:35:00,35.0,34.0,30.40,South,183,4.0,7.0,96,0.00,,SCT,0.00,0.00,VWS V14.01,2013-03-18 05:35:00,
2013-03-18 01:40:00,35.0,34.0,30.40,SSW,197,4.0,7.0,96,0.00,,SCT,0.00,0.00,VWS V14.01,2013-03-18 05:40:00,
2013-03-18 01:45:00,35.1,34.1,30.40,SSW,194,2.0,7.0,96,0.00,,SCT,0.00,0.00,VWS V14.01,2013-03-18 05:45:00,
2013-03-18 01:50:00,35.1,34.1,30.40,SSW,194,1.0,7.0,96,0.00,,SCT,0.00,0.00,VWS V14.01,2013-03-18 05:50:00,
2013-03-18 01:55:00,35.1,34.1,30.40,South,190,0.0,2.0,96,0.00,,SCT,0.00,0.00,VWS V14.01,2013-03-18 05:55:00,
2013-03-18 02:00:00,35.1,34.1,30.40,South,190,0.0,3.0,96,0.00,,SCT,0.00,0.00,VWS V14.01,2013-03-18 06:00:00,
2013-03-18 02:05:00,35.1,34.1,30.40,South,182,0.0,4.0,96,0.00,,SCT,0.00,0.00,VWS V14.01,2013-03-18 06:05:00,
2013-03-18 02:10:00,35.1,34.1,30.40,SSW,196,3.0,4.0,96,0.00,,SCT,0.00,0.00,VWS V14.01,2013-03-18 06:10:00,
2013-03-18 02:15:00,35.1,34.1,30.40,SSW,196,2.0,4.0,96,0.00,,SCT,0.00,0.00,VWS V14.01,2013-03-18 06:15:00,
2013-03-18 02:20:00,35.1,34.1,30.40,South,186,0.0,4.0,96,0.00,,SCT,0.00,0.00,VWS V14.01,2013-03-18 06:20:00,
2013-03-18 02:25:00,35.1,34.1,30.39,South,188,2.0,4.0,96,0.00,,SCT,0.00,0.00,VWS V14.01,2013-03-18 06:25:00,
2013-03-18 02:30:00,35.1,34.1,30.39,South,188,0.0,4.0,96,0.00,,SCT,0.00,0.00,VWS V14.01,2013-03-18 06:30:00,
2013-03-18 02:35:00,35.1,34.1,30.39,South,188,2.0,4.0,96,0.00,,SCT,0.00,0.00,VWS V14.01,2013-03-18 06:35:00,
2013-03-18 02:40:00,35.1,34.1,30.40,South,190,1.0,4.0,96,0.00,,SCT,0.00,0.00,VWS V14.01,2013-03-18 06:40:00,
2013-03-18 02:45:00,35.1,34.1,30.40,South,189,2.0,4.0,96,0.00,,SCT,0.00,0.00,VWS V14.01,2013-03-18 06:45:00,
2013-03-18 02:50:00,35.1,34.1,30.40,South,189,2.0,4.0,96,0.00,,SCT,0.00,0.00,VWS V14.01,2013-03-18 06:50:00,
2013-03-18 02:55:00,35.1,34.1,30.40,SSW,204,0.0,2.0,96,0.00,,SCT,0.00,0.00,VWS V14.01,2013-03-18 06:55:00,
2013-03-18 03:00:00,35.1,34.1,30.40,SSW,204,0.0,3.0,96,0.00,,SCT,0.00,0.00,VWS V14.01,2013-03-18 07:00:00,
2013-03-18 03:05:00,35.2,34.2,30.40,SSW,204,0.0,3.0,96,0.00,,SCT,0.00,0.00,VWS V14.01,2013-03-18 07:05:00,
2013-03-18 03:10:00,35.1,34.1,30.40,SSW,201,0.0,4.0,96,0.00,,SCT,0.00,0.00,VWS V14.01,2013-03-18 07:10:00,
2013-03-18 03:15:00,35.1,34.1,30.40,SSW,192,3.0,4.0,96,0.00,,SCT,0.00,0.00,VWS V14.01,2013-03-18 07:15:00,
2013-03-18 03:20:00,35.2,34.2,30.40,SSW,200,1.0,4.0,96,0.00,,SCT,0.00,0.00,VWS V14.01,2013-03-18 07:20:00,
2013-03-18 03:25:00,35.2,34.2,30.40,SSW,198,3.0,4.0,96,0.00,,SCT,0.00,0.00,VWS V14.01,2013-03-18 07:25:00,
2013-03-18 03:30:00,35.2,34.2,30.40,SSW,194,1.0,4.0,96,0.00,,SCT,0.00,0.00,VWS V14.01,2013-03-18 07:30:00,
2013-03-18 03:35:00,35.3,34.3,30.40,SSW,198,1.0,4.0,96,0.00,,SCT,0.00,0.00,VWS V14.01,2013-03-18 07:35:00,
2013-03-18 03:40:00,35.3,34.3,30.40,SSW,198,0.0,4.0,96,0.00,,SCT,0.00,0.00,VWS V14.01,2013-03-18 07:40:00,
2013-03-18 03:45:00,35.3,34.3,30.40,SSW,198,3.0,4.0,96,0.00,,SCT,0.00,0.00,VWS V14.01,2013-03-18 07:45:00,
2013-03-18 03:50:00,35.4,34.4,30.39,SSW,208,2.0,4.0,96,0.00,,SCT,0.00,0.00,VWS V14.01,2013-03-18 07:50:00,
2013-03-18 03:55:00,35.4,34.4,30.40,SW,219,2.0,4.0,96,0.00,,SCT,0.00,0.00,VWS V14.01,2013-03-18 07:55:00,
2013-03-18 04:00:00,35.4,34.4,30.40,WSW,237,3.0,6.0,96,0.00,,SCT,0.00,0.00,VWS V14.01,2013-03-18 08:00:00,
2013-03-18 04:05:00,35.4,34.4,30.39,WSW,237,4.0,6.0,96,0.00,,SCT,0.00,0.00,VWS V14.01,2013-03-18 08:05:00,
2013-03-18 04:10:00,35.4,34.4,30.39,SW,236,3.0,6.0,96,0.00,,SCT,0.00,0.00,VWS V14.01,2013-03-18 08:10:00,
2013-03-18 04:15:00,35.4,34.4,30.39,SW,236,3.0,6.0,96,0.00,,SCT,0.00,0.00,VWS V14.01,2013-03-18 08:15:00,
2013-03-18 04:20:00,35.4,34.4,30.39,SW,227,4.0,8.0,96,0.00,,SCT,0.00,0.00,VWS V14.01,2013-03-18 08:20:00,
2013-03-18 04:25:00,35.3,34.3,30.39,SW,227,2.0,8.0,96,0.00,,SCT,0.00,0.00,VWS V14.01,2013-03-18 08:25:00,
2013-03-18 04:30:00,35.4,34.4,30.39,SW,224,3.0,8.0,96,0.00,,SCT,0.00,0.00,VWS V14.01,2013-03-18 08:30:00,
2013-03-18 04:35:00,35.4,34.4,30.39,SW,228,3.0,8.0,96,0.00,,SCT,0.00,0.00,VWS V14.01,2013-03-18 08:35:00,
2013-03-18 04:40:00,35.4,34.4,30.39,SW,218,2.0,9.0,96,0.00,,SCT,0.00,0.00,VWS V14.01,2013-03-18 08:40:00,
2013-03-18 04:45:00,35.4,34.4,30.39,WSW,250,2.0,9.0,96,0.00,,SCT,0.00,0.00,VWS V14.01,2013-03-18 08:45:00,
2013-03-18 04:50:00,35.4,34.4,30.39,WSW,248,0.0,9.0,96,0.00,,SCT,0.00,0.00,VWS V14.01,2013-03-18 08:50:00,
2013-03-18 04:55:00,35.4,34.4,30.39,WSW,247,1.0,3.0,96,0.00,,SCT,0.00,0.00,VWS V14.01,2013-03-18 08:55:00,
2013-03-18 05:00:00,35.3,34.3,30.39,WSW,247,1.0,3.0,96,0.00,,SCT,0.00,0.00,VWS V14.01,2013-03-18 09:00:00,
2013-03-18 05:05:00,35.3,34.3,30.40,South,186,0.0,4.0,96,0.00,,SCT,0.00,0.00,VWS V14.01,2013-03-18 09:05:00,
2013-03-18 05:10:00,35.3,34.3,30.40,SSW,201,3.0,5.0,96,0.00,,SCT,0.00,0.00,VWS V14.01,2013-03-18 09:10:00,
2013-03-18 05:15:00,35.3,34.3,30.40,SSW,207,4.0,5.0,96,0.00,,SCT,0.00,0.00,VWS V14.01,2013-03-18 09:15:00,
2013-03-18 05:20:00,35.3,34.3,30.39,SW,231,3.0,5.0,96,0.00,,SCT,0.00,0.00,VWS V14.01,2013-03-18 09:20:00,
2013-03-18 05:25:00,35.3,34.3,30.40,SW,229,0.0,5.0,96,0.00,,SCT,0.00,0.00,VWS V14.01,2013-03-18 09:25:00,
2013-03-18 05:30:00,35.3,34.3,30.41,South,179,1.0,5.0,96,0.00,,SCT,0.00,0.00,VWS V14.01,2013-03-18 09:30:00,
2013-03-18 05:35:00,35.3,34.3,30.40,South,179,0.0,5.0,96,0.00,,SCT,0.00,0.00,VWS V14.01,2013-03-18 09:35:00,
2013-03-18 05:40:00,35.2,34.2,30.40,South,179,1.0,5.0,96,0.00,,SCT,0.00,0.00,VWS V14.01,2013-03-18 09:40:00,
2013-03-18 05:45:00,35.2,34.2,30.41,South,179,0.0,5.0,96,0.00,,SCT,0.00,0.00,VWS V14.01,2013-03-18 09:45:00,
2013-03-18 05:50:00,35.2,34.2,30.41,South,179,0.0,5.0,96,0.00,,SCT,0.00,0.00,VWS V14.01,2013-03-18 09:50:00,
2013-03-18 05:55:00,35.2,34.2,30.41,South,179,1.0,4.0,96,0.00,,SCT,0.00,0.00,VWS V14.01,2013-03-18 09:55:00,
2013-03-18 06:00:00,35.2,34.2,30.41,South,179,1.0,4.0,96,0.00,,SCT,0.00,0.00,VWS V14.01,2013-03-18 10:00:00,
2013-03-18 06:05:00,35.2,34.2,30.41,South,179,2.0,4.0,96,0.00,,SCT,0.00,0.00,VWS V14.01,2013-03-18 10:05:00,
2013-03-18 06:10:00,35.2,34.2,30.41,South,186,0.0,4.0,96,0.00,,SCT,0.00,0.00,VWS V14.01,2013-03-18 10:10:00,
2013-03-18 06:14:00,35.2,34.2,30.42,South,186,1.0,4.0,96,0.00,,SCT,0.00,0.00,VWS V14.01,2013-03-18 10:14:00,
2013-03-18 06:19:00,35.2,34.2,30.42,South,171,0.0,5.0,96,0.00,,SCT,0.00,0.00,VWS V14.01,2013-03-18 10:19:00,
2013-03-18 06:24:00,35.2,34.2,30.41,South,171,4.0,5.0,96,0.00,,SCT,0.00,0.00,VWS V14.01,2013-03-18 10:24:00,
2013-03-18 06:29:00,35.3,34.3,30.42,South,182,1.0,5.0,96,0.00,,SCT,0.00,0.00,VWS V14.01,2013-03-18 10:29:00,
2013-03-18 06:34:00,35.3,34.3,30.42,South,182,1.0,5.0,96,0.00,,SCT,0.00,0.00,VWS V14.01,2013-03-18 10:34:00,
2013-03-18 06:39:00,35.3,34.3,30.41,South,182,1.0,5.0,96,0.00,,SCT,0.00,0.00,VWS V14.01,2013-03-18 10:39:00,
2013-03-18 06:44:00,35.2,34.2,30.42,South,190,1.0,5.0,96,0.00,,SCT,0.00,0.00,VWS V14.01,2013-03-18 10:44:00,
2013-03-18 06:49:00,35.2,34.2,30.42,SSW,196,0.0,5.0,96,0.00,,SCT,0.00,0.00,VWS V14.01,2013-03-18 10:49:00,
2013-03-18 06:54:00,35.2,34.2,30.42,SSW,196,3.0,4.0,96,0.00,,SCT,0.00,0.00,VWS V14.01,2013-03-18 10:54:00,
2013-03-18 06:59:00,35.2,34.2,30.42,South,170,1.0,5.0,96,0.00,,SCT,0.00,0.00,VWS V14.01,2013-03-18 10:59:00,
2013-03-18 07:00:00,35.2,34.2,30.42,SSW,196,3.0,5.0,96,0.00,,SCT,0.00,0.00,VWS V14.01,2013-03-18 11:00:00,
2013-03-18 07:04:00,35.2,34.2,30.42,South,188,2.0,5.0,96,0.00,,SCT,0.00,0.00,VWS V14.01,2013-03-18 11:04:00,
2013-03-18 07:09:00,35.2,34.2,30.42,SW,221,2.0,5.0,96,0.00,,SCT,0.00,0.00,VWS V14.01,2013-03-18 11:09:00,
2013-03-18 07:14:00,35.2,34.2,30.42,WSW,238,5.0,8.0,96,0.00,,SCT,0.00,0.00,VWS V14.01,2013-03-18 11:14:00,
2013-03-18 07:19:00,35.2,34.2,30.42,SW,225,4.0,8.0,96,0.00,,SCT,0.00,0.00,VWS V14.01,2013-03-18 11:19:00,
2013-03-18 07:24:00,35.2,34.2,30.43,SW,231,5.0,8.0,96,0.00,,SCT,0.00,0.00,VWS V14.01,2013-03-18 11:24:00,
2013-03-18 07:29:00,35.2,34.2,30.42,SW,234,6.0,8.0,96,0.00,,SCT,0.00,0.00,VWS V14.01,2013-03-18 11:29:00,
2013-03-18 07:34:00,35.2,34.2,30.42,WSW,240,5.0,8.0,96,0.00,,SCT,0.00,0.00,VWS V14.01,2013-03-18 11:34:00,
2013-03-18 07:39:00,35.2,34.2,30.42,WSW,246,5.0,8.0,96,0.00,,SCT,0.00,0.00,VWS V14.01,2013-03-18 11:39:00,
2013-03-18 07:44:00,35.2,34.2,30.42,SW,215,3.0,8.0,96,0.00,,SCT,0.00,0.00,VWS V14.01,2013-03-18 11:44:00,
2013-03-18 07:49:00,35.3,34.3,30.43,SSW,197,3.0,8.0,96,0.00,,SCT,0.00,0.00,VWS V14.01,2013-03-18 11:49:00,
2013-03-18 07:54:00,35.3,34.3,30.42,SSW,198,2.0,5.0,96,0.00,,SCT,0.00,0.00,VWS V14.01,2013-03-18 11:54:00,
2013-03-18 07:59:00,35.3,34.3,30.42,SSW,207,1.0,5.0,96,0.00,,SCT,0.00,5.00,VWS V14.01,2013-03-18 11:59:00,
2013-03-18 08:00:00,35.3,34.3,30.42,SSW,197,3.0,8.0,96,0.00,,SCT,0.00,0.00,VWS V14.01,2013-03-18 12:00:00,
2013-03-18 08:04:00,35.3,34.3,30.43,SSW,201,3.0,5.0,96,0.00,,SCT,0.00,7.00,VWS V14.01,2013-03-18 12:04:00,
2013-03-18 08:09:00,35.3,34.3,30.42,SW,236,4.0,6.0,96,0.00,,SCT,0.00,9.00,VWS V14.01,2013-03-18 12:09:00,
2013-03-18 08:14:00,35.3,34.3,30.42,SSW,209,2.0,6.0,96,0.00,,SCT,0.00,9.00,VWS V14.01,2013-03-18 12:14:00,
2013-03-18 08:19:00,35.4,34.4,30.42,SW,232,4.0,6.0,96,0.00,,SCT,0.00,7.00,VWS V14.01,2013-03-18 12:19:00,
2013-03-18 08:24:00,35.4,34.4,30.42,SW,226,5.0,6.0,96,0.00,,SCT,0.00,11.00,VWS V14.01,2013-03-18 12:24:00,
2013-03-18 08:29:00,35.4,34.4,30.42,SW,229,2.0,6.0,96,0.00,,SCT,0.00,12.00,VWS V14.01,2013-03-18 12:29:00,
2013-03-18 08:34:00,35.4,34.4,30.42,SW,224,3.0,6.0,96,0.00,,SCT,0.00,16.00,VWS V14.01,2013-03-18 12:34:00,
2013-03-18 08:39:00,35.5,34.5,30.42,SW,224,2.0,6.0,96,0.00,,SCT,0.00,14.00,VWS V14.01,2013-03-18 12:39:00,
2013-03-18 08:44:00,35.5,34.5,30.42,SSW,193,0.0,6.0,96,0.00,,SCT,0.00,11.00,VWS V14.01,2013-03-18 12:44:00,
2013-03-18 08:49:00,35.5,34.5,30.42,SSW,203,0.0,6.0,96,0.00,,SCT,0.00,11.00,VWS V14.01,2013-03-18 12:49:00,
2013-03-18 08:54:00,35.5,34.5,30.41,SSW,197,3.0,5.0,96,0.00,,SCT,0.00,5.00,VWS V14.01,2013-03-18 12:54:00,
2013-03-18 08:59:00,35.5,34.5,30.41,SW,219,3.0,5.0,96,0.00,,SCT,0.00,12.00,VWS V14.01,2013-03-18 12:59:00,
2013-03-18 09:00:00,35.5,34.5,30.41,SSW,203,4.0,6.0,96,0.00,,SCT,0.00,7.00,VWS V14.01,2013-03-18 13:00:00,
2013-03-18 09:04:00,35.5,34.5,30.41,SW,221,3.0,5.0,96,0.00,,SCT,0.00,18.00,VWS V14.01,2013-03-18 13:04:00,
2013-03-18 09:09:00,35.4,34.4,30.41,SW,221,2.0,5.0,96,0.00,,SCT,0.00,19.00,VWS V14.01,2013-03-18 13:09:00,
2013-03-18 09:14:00,35.4,34.4,30.41,SW,229,2.0,8.0,96,0.00,,SCT,0.00,25.00,VWS V14.01,2013-03-18 13:14:00,
2013-03-18 09:19:00,35.4,34.4,30.41,WSW,244,3.0,8.0,96,0.00,,SCT,0.00,25.00,VWS V14.01,2013-03-18 13:19:00,
2013-03-18 09:24:00,35.3,34.3,30.41,SSW,205,4.0,9.0,96,0.00,,SCT,0.00,19.00,VWS V14.01,2013-03-18 13:24:00,
2013-03-18 09:29:00,35.3,34.3,30.41,SSW,210,2.0,9.0,96,0.00,,SCT,0.00,16.00,VWS V14.01,2013-03-18 13:29:00,
2013-03-18 09:34:00,35.3,34.3,30.41,WSW,250,6.0,9.0,96,0.00,,SCT,0.00,16.00,VWS V14.01,2013-03-18 13:34:00,
2013-03-18 09:39:00,35.3,34.3,30.41,SSW,205,3.0,9.0,96,0.00,,SCT,0.00,18.00,VWS V14.01,2013-03-18 13:39:00,
2013-03-18 09:44:00,35.3,34.3,30.40,SW,234,4.0,9.0,96,0.00,,SCT,0.00,21.00,VWS V14.01,2013-03-18 13:44:00,
2013-03-18 09:49:00,35.3,34.3,30.40,SW,222,6.0,9.0,96,0.00,,SCT,0.00,21.00,VWS V14.01,2013-03-18 13:49:00,
2013-03-18 09:54:00,35.3,34.3,30.40,SW,230,3.0,5.0,96,0.00,,SCT,0.00,19.00,VWS V14.01,2013-03-18 13:54:00,
2013-03-18 09:59:00,35.3,34.3,30.40,SSW,211,3.0,6.0,96,0.00,,SCT,0.00,21.00,VWS V14.01,2013-03-18 13:59:00,
2013-03-18 10:00:00,35.2,34.2,30.40,SW,226,4.0,9.0,96,0.00,,SCT,0.00,19.00,VWS V14.01,2013-03-18 14:00:00,
2013-03-18 10:04:00,35.3,34.3,30.39,SW,223,6.0,7.0,96,0.00,,SCT,0.00,26.00,VWS V14.01,2013-03-18 14:04:00,
2013-03-18 10:09:00,35.3,34.3,30.39,SW,226,5.0,8.0,96,0.00,,SCT,0.00,30.00,VWS V14.01,2013-03-18 14:09:00,
2013-03-18 10:14:00,35.3,34.3,30.39,SW,223,6.0,8.0,96,0.00,,SCT,0.00,26.00,VWS V14.01,2013-03-18 14:14:00,
2013-03-18 10:19:00,35.3,34.3,30.38,SW,215,3.0,9.0,96,0.00,,SCT,0.00,42.00,VWS V14.01,2013-03-18 14:19:00,
2013-03-18 10:24:00,35.3,34.3,30.38,SW,221,4.0,9.0,96,0.00,,SCT,0.00,39.00,VWS V14.01,2013-03-18 14:24:00,
2013-03-18 10:29:00,35.4,34.4,30.38,SW,218,3.0,9.0,96,0.00,,SCT,0.00,44.00,VWS V14.01,2013-03-18 14:29:00,
2013-03-18 10:34:00,35.4,34.4,30.37,SSW,213,5.0,9.0,96,0.00,,SCT,0.00,42.00,VWS V14.01,2013-03-18 14:34:00,
2013-03-18 10:39:00,35.4,34.4,30.37,SW,234,3.0,9.0,96,0.00,,SCT,0.00,40.00,VWS V14.01,2013-03-18 14:39:00,
2013-03-18 10:44:00,35.4,34.4,30.38,SSW,210,5.0,9.0,96,0.00,,SCT,0.00,32.00,VWS V14.01,2013-03-18 14:44:00,
2013-03-18 10:49:00,35.4,34.4,30.37,SW,215,6.0,9.0,96,0.00,,SCT,0.00,35.00,VWS V14.01,2013-03-18 14:49:00,
2013-03-18 10:54:00,35.4,34.4,30.37,SW,220,6.0,6.0,96,0.00,,SCT,0.00,39.00,VWS V14.01,2013-03-18 14:54:00,
2013-03-18 10:59:00,35.5,34.5,30.37,SSW,207,6.0,8.0,96,0.00,,SCT,0.00,39.00,VWS V14.01,2013-03-18 14:59:00,
2013-03-18 11:00:00,35.4,34.4,30.37,SW,223,3.0,11.0,96,0.00,,SCT,0.00,40.00,VWS V14.01,2013-03-18 15:00:00,
2013-03-18 11:04:00,35.4,34.4,30.37,SW,223,5.0,10.0,96,0.00,,SCT,0.00,30.00,VWS V14.01,2013-03-18 15:04:00,
2013-03-18 11:09:00,35.4,34.4,30.37,SSW,208,3.0,10.0,96,0.00,,SCT,0.00,40.00,VWS V14.01,2013-03-18 15:09:00,
2013-03-18 11:14:00,35.4,34.4,30.37,SW,232,2.0,10.0,96,0.00,,SCT,0.00,40.00,VWS V14.01,2013-03-18 15:14:00,
2013-03-18 11:19:00,35.4,34.4,30.36,SW,235,3.0,10.0,96,0.00,,SCT,0.00,53.00,VWS V14.01,2013-03-18 15:19:00,
2013-03-18 11:24:00,35.5,34.5,30.36,WSW,237,3.0,10.0,96,0.00,,SCT,0.00,62.00,VWS V14.01,2013-03-18 15:24:00,
2013-03-18 11:29:00,35.5,34.5,30.36,SW,223,7.0,10.0,96,0.00,,SCT,0.00,47.00,VWS V14.01,2013-03-18 15:29:00,
2013-03-18 11:34:00,35.5,34.5,30.35,SW,223,4.0,10.0,96,0.00,,SCT,0.00,56.00,VWS V14.01,2013-03-18 15:34:00,
2013-03-18 11:39:00,35.6,34.6,30.35,SW,221,2.0,10.0,96,0.00,,SCT,0.00,39.00,VWS V14.01,2013-03-18 15:39:00,
2013-03-18 11:44:00,35.6,34.6,30.35,SW,217,3.0,10.0,96,0.00,,SCT,0.00,37.00,VWS V14.01,2013-03-18 15:44:00,
2013-03-18 11:49:00,35.7,34.7,30.35,South,182,3.0,10.0,96,0.00,,SCT,0.00,54.00,VWS V14.01,2013-03-18 15:49:00,
2013-03-18 11:54:00,35.7,34.7,30.35,SSE,153,4.0,5.0,96,0.00,,SCT,0.00,58.00,VWS V14.01,2013-03-18 15:54:00,
2013-03-18 11:59:00,35.8,34.8,30.34,South,181,2.0,6.0,96,0.01,,SCT,0.01,58.00,VWS V14.01,2013-03-18 15:59:00,
2013-03-18 12:00:00,35.7,34.7,30.35,SSE,155,4.0,10.0,96,0.00,,SCT,0.00,53.00,VWS V14.01,2013-03-18 16:00:00,
2013-03-18 12:04:00,35.7,34.7,30.35,SSE,161,2.0,8.0,96,0.01,,SCT,0.01,56.00,VWS V14.01,2013-03-18 16:04:00,
2013-03-18 12:09:00,35.6,34.6,30.35,SSE,155,2.0,8.0,96,0.01,,SCT,0.01,60.00,VWS V14.01,2013-03-18 16:09:00,
2013-03-18 12:14:00,35.5,34.5,30.35,SE,144,6.0,8.0,96,0.01,,SCT,0.01,76.00,VWS V14.01,2013-03-18 16:14:00,
2013-03-18 12:19:00,35.5,34.5,30.34,South,175,0.0,8.0,96,0.02,,SCT,0.02,77.00,VWS V14.01,2013-03-18 16:19:00,
2013-03-18 12:24:00,35.5,34.5,30.34,South,184,5.0,8.0,96,0.02,,SCT,0.02,79.00,VWS V14.01,2013-03-18 16:24:00,
2013-03-18 12:29:00,35.4,34.4,30.34,SSW,199,7.0,8.0,96,0.02,,SCT,0.02,86.00,VWS V14.01,2013-03-18 16:29:00,
2013-03-18 12:34:00,35.3,34.3,30.33,South,181,4.0,10.0,96,0.03,,SCT,0.03,86.00,VWS V14.01,2013-03-18 16:34:00,
2013-03-18 12:39:00,35.4,34.4,30.34,South,180,0.0,10.0,96,0.03,,SCT,0.03,62.00,VWS V14.01,2013-03-18 16:39:00,
2013-03-18 12:44:00,35.3,34.3,30.33,SSW,196,8.0,10.0,96,0.03,,SCT,0.03,65.00,VWS V14.01,2013-03-18 16:44:00,
2013-03-18 12:49:00,35.2,34.2,30.32,SSW,202,3.0,10.0,96,0.04,,SCT,0.04,76.00,VWS V14.01,2013-03-18 16:49:00,
2013-03-18 12:54:00,35.2,34.2,30.32,South,182,6.0,6.0,96,0.04,,SCT,0.04,79.00,VWS V14.01,2013-03-18 16:54:00,
2013-03-18 12:59:00,35.2,34.2,30.31,SSW,198,8.0,9.0,96,0.05,,SCT,0.05,93.00,VWS V14.01,2013-03-18 16:59:00,
2013-03-18 13:00:00,35.2,34.2,30.32,SSW,197,3.0,10.0,96,0.04,,SCT,0.04,76.00,VWS V14.01,2013-03-18 17:00:00,
2013-03-18 13:04:00,35.2,34.2,30.31,South,190,2.0,9.0,96,0.05,,SCT,0.05,72.00,VWS V14.01,2013-03-18 17:04:00,
2013-03-18 13:09:00,35.3,34.3,30.31,South,190,4.0,9.0,96,0.05,,SCT,0.05,81.00,VWS V14.01,2013-03-18 17:09:00,
2013-03-18 13:14:00,35.3,34.3,30.30,SW,223,3.0,9.0,96,0.05,,SCT,0.05,72.00,VWS V14.01,2013-03-18 17:14:00,
2013-03-18 13:19:00,35.3,34.3,30.30,SW,225,6.0,9.0,96,0.05,,SCT,0.05,72.00,VWS V14.01,2013-03-18 17:19:00,
2013-03-18 13:24:00,35.3,34.3,30.30,SSW,213,2.0,9.0,96,0.06,,SCT,0.06,60.00,VWS V14.01,2013-03-18 17:24:00,
2013-03-18 13:29:00,35.5,34.5,30.30,South,189,0.0,9.0,96,0.06,,SCT,0.06,65.00,VWS V14.01,2013-03-18 17:29:00,
2013-03-18 13:34:00,35.6,34.6,30.29,South,189,0.0,9.0,96,0.06,,SCT,0.06,76.00,VWS V14.01,2013-03-18 17:34:00,
2013-03-18 13:39:00,35.5,34.5,30.30,SSW,192,0.0,9.0,96,0.06,,SCT,0.06,39.00,VWS V14.01,2013-03-18 17:39:00,
2013-03-18 13:44:00,35.6,34.6,30.30,South,190,1.0,9.0,96,0.07,,SCT,0.07,51.00,VWS V14.01,2013-03-18 17:44:00,
2013-03-18 13:49:00,35.5,34.5,30.29,South,171,2.0,9.0,96,0.07,,SCT,0.07,53.00,VWS V14.01,2013-03-18 17:49:00,
2013-03-18 13:54:00,35.5,34.5,30.28,South,175,4.0,5.0,96,0.03,,SCT,0.07,76.00,VWS V14.01,2013-03-18 17:54:00,
2013-03-18 13:59:00,35.7,34.7,30.28,SSW,208,6.0,6.0,96,0.03,,SCT,0.07,69.00,VWS V14.01,2013-03-18 17:59:00,
2013-03-18 14:00:00,35.5,34.5,30.28,South,173,2.0,9.0,96,0.07,,SCT,0.07,88.00,VWS V14.01,2013-03-18 18:00:00,
2013-03-18 14:04:00,35.7,34.7,30.26,South,189,3.0,7.0,96,0.03,,SCT,0.07,88.00,VWS V14.01,2013-03-18 18:04:00,
2013-03-18 14:09:00,35.6,34.6,30.27,SSW,196,5.0,8.0,96,0.03,,SCT,0.07,76.00,VWS V14.01,2013-03-18 18:09:00,
2013-03-18 14:14:00,35.5,34.5,30.26,SSE,168,5.0,8.0,96,0.03,,SCT,0.07,111.00,VWS V14.01,2013-03-18 18:14:00,
2013-03-18 14:19:00,35.7,34.7,30.26,South,177,1.0,8.0,96,0.03,,SCT,0.07,72.00,VWS V14.01,2013-03-18 18:19:00,
2013-03-18 14:24:00,35.7,34.7,30.26,South,181,4.0,8.0,96,0.04,,SCT,0.08,67.00,VWS V14.01,2013-03-18 18:24:00,
2013-03-18 14:29:00,35.6,34.6,30.26,South,185,3.0,8.0,96,0.04,,SCT,0.08,72.00,VWS V14.01,2013-03-18 18:29:00,
2013-03-18 14:34:00,35.8,34.8,30.25,South,188,3.0,8.0,96,0.04,,SCT,0.08,51.00,VWS V14.01,2013-03-18 18:34:00,
2013-03-18 14:39:00,35.7,34.7,30.25,SSW,195,3.0,8.0,96,0.04,,SCT,0.08,47.00,VWS V14.01,2013-03-18 18:39:00,
2013-03-18 14:44:00,35.8,34.8,30.25,SSW,196,0.0,8.0,96,0.04,,SCT,0.08,70.00,VWS V14.01,2013-03-18 18:44:00,
2013-03-18 14:49:00,35.9,34.9,30.25,SSW,196,0.0,8.0,96,0.04,,SCT,0.08,40.00,VWS V14.01,2013-03-18 18:49:00,
2013-03-18 14:54:00,35.9,34.9,30.25,SSW,192,0.0,0.0,96,0.02,,SCT,0.09,26.00,VWS V14.01,2013-03-18 18:54:00,
2013-03-18 14:59:00,36.0,35.0,30.25,SSW,192,0.0,1.0,96,0.02,,SCT,0.09,28.00,VWS V14.01,2013-03-18 18:59:00,
2013-03-18 15:00:00,35.9,34.9,30.25,SSW,192,0.0,8.0,96,0.05,,SCT,0.09,26.00,VWS V14.01,2013-03-18 19:00:00,
2013-03-18 15:04:00,35.9,34.9,30.24,South,184,3.0,3.0,96,0.02,,SCT,0.09,28.00,VWS V14.01,2013-03-18 19:04:00,
2013-03-18 15:09:00,35.8,34.8,30.24,South,190,3.0,6.0,96,0.02,,SCT,0.09,44.00,VWS V14.01,2013-03-18 19:09:00,
2013-03-18 15:14:00,35.7,34.7,30.24,South,190,1.0,6.0,96,0.02,,SCT,0.09,35.00,VWS V14.01,2013-03-18 19:14:00,
2013-03-18 15:19:00,35.8,34.8,30.23,South,190,3.0,6.0,96,0.02,,SCT,0.09,30.00,VWS V14.01,2013-03-18 19:19:00,
2013-03-18 15:24:00,35.9,34.9,30.23,South,190,1.0,6.0,96,0.02,,SCT,0.09,32.00,VWS V14.01,2013-03-18 19:24:00,
2013-03-18 15:29:00,35.9,34.9,30.23,South,190,2.0,6.0,96,0.03,,SCT,0.10,44.00,VWS V14.01,2013-03-18 19:29:00,
2013-03-18 15:34:00,35.9,34.9,30.22,SSW,198,5.0,6.0,96,0.03,,SCT,0.10,65.00,VWS V14.01,2013-03-18 19:34:00,
2013-03-18 15:39:00,35.9,34.9,30.22,SSW,198,5.0,6.0,96,0.03,,SCT,0.10,65.00,VWS V14.01,2013-03-18 19:39:00,
2013-03-18 15:44:00,36.0,35.0,30.23,SSW,193,0.0,6.0,96,0.03,,SCT,0.10,32.00,VWS V14.01,2013-03-18 19:44:00,
2013-03-18 15:49:00,36.0,35.0,30.22,SSE,161,2.0,6.0,96,0.03,,SCT,0.10,40.00,VWS V14.01,2013-03-18 19:49:00,
2013-03-18 15:54:00,36.0,35.0,30.22,SSE,161,0.0,0.0,96,0.02,,SCT,0.11,49.00,VWS V14.01,2013-03-18 19:54:00,
2013-03-18 15:59:00,36.1,35.1,30.22,South,182,2.0,4.0,96,0.02,,SCT,0.11,51.00,VWS V14.01,2013-03-18 19:59:00,
2013-03-18 16:00:00,36.0,35.0,30.22,SSE,161,0.0,6.0,96,0.04,,SCT,0.11,46.00,VWS V14.01,2013-03-18 20:00:00,
2013-03-18 16:04:00,36.1,35.1,30.22,South,182,0.0,4.0,96,0.02,,SCT,0.11,26.00,VWS V14.01,2013-03-18 20:04:00,
2013-03-18 16:09:00,36.2,35.2,30.22,South,177,0.0,4.0,96,0.02,,SCT,0.11,33.00,VWS V14.01,2013-03-18 20:09:00,
2013-03-18 16:14:00,36.1,35.1,30.21,SSE,155,4.0,6.0,96,0.02,,SCT,0.11,25.00,VWS V14.01,2013-03-18 20:14:00,
2013-03-18 16:19:00,36.1,35.1,30.21,South,182,4.0,6.0,96,0.02,,SCT,0.11,28.00,VWS V14.01,2013-03-18 20:19:00,
2013-03-18 16:24:00,36.1,35.1,30.21,South,178,0.0,6.0,96,0.02,,SCT,0.11,26.00,VWS V14.01,2013-03-18 20:24:00,
2013-03-18 16:29:00,36.1,35.1,30.21,South,178,0.0,6.0,96,0.02,,SCT,0.11,26.00,VWS V14.01,2013-03-18 20:29:00,
2013-03-18 16:34:00,36.0,35.0,30.20,SSW,213,2.0,6.0,96,0.02,,SCT,0.11,30.00,VWS V14.01,2013-03-18 20:34:00,
2013-03-18 16:39:00,36.1,35.1,30.21,South,184,4.0,6.0,96,0.02,,SCT,0.11,32.00,VWS V14.01,2013-03-18 20:39:00,
2013-03-18 16:44:00,36.1,35.1,30.21,South,182,1.0,6.0,96,0.03,,SCT,0.12,19.00,VWS V14.01,2013-03-18 20:44:00,
2013-03-18 16:49:00,36.0,35.0,30.21,SSE,157,2.0,6.0,96,0.03,,SCT,0.12,23.00,VWS V14.01,2013-03-18 20:49:00,
2013-03-18 16:54:00,36.0,35.0,30.21,South,178,2.0,4.0,96,0.01,,SCT,0.12,19.00,VWS V14.01,2013-03-18 20:54:00,
2013-03-18 16:59:00,36.0,35.0,30.21,South,178,0.0,4.0,96,0.01,,SCT,0.12,18.00,VWS V14.01,2013-03-18 20:59:00,
2013-03-18 17:00:00,36.0,35.0,30.20,South,178,4.0,6.0,96,0.03,,SCT,0.12,19.00,VWS V14.01,2013-03-18 21:00:00,
2013-03-18 17:04:00,36.0,35.0,30.20,SSE,167,4.0,5.0,96,0.01,,SCT,0.12,14.00,VWS V14.01,2013-03-18 21:04:00,
2013-03-18 17:09:00,35.9,34.9,30.20,South,180,2.0,6.0,96,0.01,,SCT,0.12,18.00,VWS V14.01,2013-03-18 21:09:00,
2013-03-18 17:14:00,35.8,34.8,30.20,South,180,3.0,6.0,96,0.01,,SCT,0.12,12.00,VWS V14.01,2013-03-18 21:14:00,
2013-03-18 17:19:00,35.9,34.9,30.20,South,180,1.0,6.0,96,0.01,,SCT,0.12,14.00,VWS V14.01,2013-03-18 21:19:00,
2013-03-18 17:24:00,35.9,34.9,30.20,South,180,1.0,6.0,96,0.02,,SCT,0.13,16.00,VWS V14.01,2013-03-18 21:24:00,
2013-03-18 17:29:00,35.9,34.9,30.19,South,182,2.0,6.0,96,0.02,,SCT,0.13,21.00,VWS V14.01,2013-03-18 21:29:00,
2013-03-18 17:34:00,36.0,35.0,30.19,South,182,0.0,6.0,96,0.02,,SCT,0.13,23.00,VWS V14.01,2013-03-18 21:34:00,
2013-03-18 17:39:00,35.9,34.9,30.19,South,182,1.0,6.0,96,0.02,,SCT,0.13,14.00,VWS V14.01,2013-03-18 21:39:00,
2013-03-18 17:44:00,36.1,35.1,30.19,SSE,161,0.0,6.0,96,0.03,,SCT,0.14,7.00,VWS V14.01,2013-03-18 21:44:00,
2013-03-18 17:49:00,36.1,35.1,30.17,SSW,195,4.0,6.0,96,0.04,,SCT,0.15,11.00,VWS V14.01,2013-03-18 21:49:00,
2013-03-18 17:54:00,36.1,35.1,30.18,SSW,201,0.0,2.0,96,0.04,,SCT,0.16,9.00,VWS V14.01,2013-03-18 21:54:00,
2013-03-18 17:59:00,36.1,35.1,30.18,SSE,158,1.0,5.0,96,0.05,,SCT,0.17,14.00,VWS V14.01,2013-03-18 21:59:00,
2013-03-18 18:00:00,36.1,35.1,30.18,SSW,201,2.0,6.0,96,0.04,,SCT,0.15,7.00,VWS V14.01,2013-03-18 22:00:00,
2013-03-18 18:04:00,36.1,35.1,30.18,SSE,158,2.0,5.0,96,0.05,,SCT,0.17,14.00,VWS V14.01,2013-03-18 22:04:00,
2013-03-18 18:09:00,36.1,35.1,30.18,SE,145,1.0,7.0,96,0.06,,SCT,0.18,9.00,VWS V14.01,2013-03-18 22:09:00,
2013-03-18 18:14:00,36.1,35.1,30.17,SSE,152,0.0,7.0,96,0.07,,SCT,0.19,9.00,VWS V14.01,2013-03-18 22:14:00,
2013-03-18 18:19:00,36.1,35.1,30.18,SE,127,5.0,7.0,96,0.07,,SCT,0.19,7.00,VWS V14.01,2013-03-18 22:19:00,
2013-03-18 18:24:00,36.1,35.1,30.18,ESE,115,0.0,7.0,96,0.07,,SCT,0.19,5.00,VWS V14.01,2013-03-18 22:24:00,
2013-03-18 18:29:00,36.1,35.1,30.17,ESE,115,0.0,7.0,96,0.08,,SCT,0.20,5.00,VWS V14.01,2013-03-18 22:29:00,
2013-03-18 18:34:00,35.9,34.9,30.18,ESE,115,0.0,7.0,96,0.09,,SCT,0.21,0.00,VWS V14.01,2013-03-18 22:34:00,
2013-03-18 18:39:00,36.0,35.0,30.17,ESE,115,0.0,7.0,96,0.10,,SCT,0.22,0.00,VWS V14.01,2013-03-18 22:39:00,
2013-03-18 18:44:00,35.9,34.9,30.16,SE,128,1.0,7.0,96,0.11,,SCT,0.23,5.00,VWS V14.01,2013-03-18 22:44:00,
2013-03-18 18:49:00,35.8,34.8,30.16,SSE,159,0.0,7.0,96,0.12,,SCT,0.24,5.00,VWS V14.01,2013-03-18 22:49:00,
2013-03-18 18:54:00,35.8,34.8,30.14,SW,231,2.0,4.0,96,0.10,,SCT,0.25,9.00,VWS V14.01,2013-03-18 22:54:00,
2013-03-18 18:59:00,35.7,34.7,30.15,SW,231,0.0,4.0,96,0.10,,SCT,0.25,9.00,VWS V14.01,2013-03-18 22:59:00,
2013-03-18 19:00:00,35.8,34.8,30.14,SW,231,4.0,7.0,96,0.12,,SCT,0.24,9.00,VWS V14.01,2013-03-18 23:00:00,
2013-03-18 19:04:00,35.7,34.7,30.15,SW,231,0.0,4.0,96,0.10,,SCT,0.25,0.00,VWS V14.01,2013-03-18 23:04:00,
2013-03-18 19:09:00,35.7,34.7,30.16,SW,231,0.0,4.0,96,0.10,,SCT,0.25,0.00,VWS V14.01,2013-03-18 23:09:00,
2013-03-18 19:14:00,35.7,34.7,30.15,SW,231,0.0,4.0,96,0.10,,SCT,0.25,0.00,VWS V14.01,2013-03-18 23:14:00,
2013-03-18 19:19:00,35.7,34.7,30.15,SW,231,0.0,4.0,96,0.10,,SCT,0.25,0.00,VWS V14.01,2013-03-18 23:19:00,
2013-03-18 19:24:00,35.7,34.7,30.15,SW,231,0.0,4.0,96,0.10,,SCT,0.25,0.00,VWS V14.01,2013-03-18 23:24:00,
2013-03-18 19:29:00,35.7,34.7,30.14,SW,231,2.0,4.0,96,0.11,,SCT,0.26,0.00,VWS V14.01,2013-03-18 23:29:00,
2013-03-18 19:34:00,35.7,34.7,30.13,SW,231,1.0,4.0,96,0.11,,SCT,0.26,0.00,VWS V14.01,2013-03-18 23:34:00,
2013-03-18 19:39:00,35.7,34.7,30.14,SW,231,0.0,4.0,96,0.11,,SCT,0.26,0.00,VWS V14.01,2013-03-18 23:39:00,
2013-03-18 19:44:00,35.7,34.7,30.14,SW,231,0.0,4.0,96,0.11,,SCT,0.26,0.00,VWS V14.01,2013-03-18 23:44:00,
2013-03-18 19:49:00,35.7,34.7,30.13,SW,231,0.0,4.0,96,0.11,,SCT,0.26,0.00,VWS V14.01,2013-03-18 23:49:00,
2013-03-18 19:54:00,35.7,34.7,30.12,SW,231,0.0,2.0,96,0.02,,SCT,0.26,0.00,VWS V14.01,2013-03-18 23:54:00,
2013-03-18 19:59:00,35.7,34.7,30.12,SW,231,0.0,2.0,96,0.02,,SCT,0.26,0.00,VWS V14.01,2013-03-18 23:59:00,
2013-03-18 20:00:00,35.7,34.7,30.12,SW,231,1.0,4.0,96,0.11,,SCT,0.26,0.00,VWS V14.01,2013-03-19 00:00:00,
2013-03-18 20:04:00,35.7,34.7,30.12,SW,231,0.0,2.0,96,0.02,,SCT,0.26,0.00,VWS V14.01,2013-03-19 00:04:00,
2013-03-18 20:09:00,35.7,34.7,30.14,SW,231,0.0,2.0,96,0.02,,SCT,0.26,0.00,VWS V14.01,2013-03-19 00:09:00,
2013-03-18 20:14:00,35.8,34.8,30.14,NNW,342,3.0,3.0,96,0.02,,SCT,0.26,0.00,VWS V14.01,2013-03-19 00:14:00,
2013-03-18 20:19:00,36.0,35.0,30.13,NNW,345,0.0,3.0,96,0.02,,SCT,0.26,0.00,VWS V14.01,2013-03-19 00:19:00,
2013-03-18 20:24:00,36.0,35.0,30.13,NNW,345,0.0,3.0,96,0.03,,SCT,0.27,0.00,VWS V14.01,2013-03-19 00:24:00,
2013-03-18 20:29:00,35.9,34.9,30.12,NNW,345,2.0,3.0,96,0.03,,SCT,0.27,0.00,VWS V14.01,2013-03-19 00:29:00,
2013-03-18 20:34:00,35.9,34.9,30.12,NNW,345,0.0,3.0,96,0.03,,SCT,0.27,0.00,VWS V14.01,2013-03-19 00:34:00,
2013-03-18 20:39:00,35.8,34.8,30.12,NNW,345,0.0,3.0,96,0.03,,SCT,0.27,0.00,VWS V14.01,2013-03-19 00:39:00,
2013-03-18 20:44:00,35.8,34.8,30.12,NNW,345,0.0,3.0,96,0.03,,SCT,0.27,0.00,VWS V14.01,2013-03-19 00:44:00,
2013-03-18 20:49:00,35.7,34.7,30.11,NNW,345,0.0,3.0,96,0.04,,SCT,0.28,0.00,VWS V14.01,2013-03-19 00:49:00,
2013-03-18 20:54:00,35.7,34.7,30.10,NNW,345,0.0,0.0,96,0.02,,SCT,0.28,0.00,VWS V14.01,2013-03-19 00:54:00,
2013-03-18 20:59:00,35.7,34.7,30.10,NNW,345,0.0,0.0,96,0.03,,SCT,0.29,0.00,VWS V14.01,2013-03-19 00:59:00,
2013-03-18 21:00:00,35.7,34.7,30.11,NNW,345,0.0,3.0,96,0.04,,SCT,0.28,0.00,VWS V14.01,2013-03-19 01:00:00,
2013-03-18 21:04:00,35.7,34.7,30.10,NNW,345,0.0,0.0,96,0.03,,SCT,0.29,0.00,VWS V14.01,2013-03-19 01:04:00,
2013-03-18 21:09:00,35.8,34.8,30.10,NNW,345,0.0,1.0,96,0.03,,SCT,0.29,0.00,VWS V14.01,2013-03-19 01:09:00,
2013-03-18 21:14:00,35.9,34.9,30.10,NNW,345,0.0,1.0,96,0.04,,SCT,0.30,0.00,VWS V14.01,2013-03-19 01:14:00,
2013-03-18 21:19:00,36.0,35.0,30.10,NNW,345,0.0,2.0,96,0.04,,SCT,0.30,0.00,VWS V14.01,2013-03-19 01:19:00,
2013-03-18 21:24:00,36.0,35.0,30.10,NNW,345,0.0,2.0,96,0.04,,SCT,0.30,0.00,VWS V14.01,2013-03-19 01:24:00,
2013-03-18 21:29:00,36.0,35.0,30.09,NNW,345,0.0,2.0,96,0.04,,SCT,0.30,0.00,VWS V14.01,2013-03-19 01:29:00,
2013-03-18 21:34:00,36.0,35.0,30.08,NNW,345,2.0,3.0,96,0.04,,SCT,0.30,0.00,VWS V14.01,2013-03-19 01:34:00,
2013-03-18 21:39:00,35.9,34.9,30.07,NNW,338,0.0,3.0,96,0.04,,SCT,0.30,0.00,VWS V14.01,2013-03-19 01:39:00,
2013-03-18 21:44:00,35.9,34.9,30.07,NNW,338,2.0,3.0,96,0.04,,SCT,0.30,0.00,VWS V14.01,2013-03-19 01:44:00,
2013-03-18 21:49:00,36.0,35.0,30.06,WNW,298,0.0,7.0,96,0.04,,SCT,0.30,0.00,VWS V14.01,2013-03-19 01:49:00,
2013-03-18 21:54:00,36.1,35.1,30.07,NW,319,4.0,4.0,96,0.02,,SCT,0.30,0.00,VWS V14.01,2013-03-19 01:54:00,
2013-03-18 21:59:00,36.1,35.1,30.08,North,355,2.0,4.0,96,0.02,,SCT,0.30,0.00,VWS V14.01,2013-03-19 01:59:00,
2013-03-18 22:00:00,36.1,35.1,30.07,NNW,331,1.0,7.0,96,0.04,,SCT,0.30,0.00,VWS V14.01,2013-03-19 02:00:00,
2013-03-18 22:04:00,36.2,35.2,30.08,ENE,74,3.0,4.0,96,0.02,,SCT,0.30,0.00,VWS V14.01,2013-03-19 02:04:00,
2013-03-18 22:09:00,36.2,35.2,30.08,East,94,5.0,6.0,96,0.02,,SCT,0.30,0.00,VWS V14.01,2013-03-19 02:09:00,
2013-03-18 22:14:00,36.1,35.1,30.07,East,86,0.0,6.0,96,0.02,,SCT,0.30,0.00,VWS V14.01,2013-03-19 02:14:00,
2013-03-18 22:19:00,36.1,35.1,30.07,East,86,0.0,6.0,96,0.02,,SCT,0.30,0.00,VWS V14.01,2013-03-19 02:19:00,
2013-03-18 22:24:00,36.1,35.1,30.06,East,86,0.0,6.0,96,0.02,,SCT,0.30,0.00,VWS V14.01,2013-03-19 02:24:00,
2013-03-18 22:29:00,36.0,35.0,30.06,ENE,67,4.0,6.0,96,0.02,,SCT,0.30,0.00,VWS V14.01,2013-03-19 02:29:00,
2013-03-18 22:34:00,36.1,35.1,30.05,ENE,67,2.0,6.0,96,0.02,,SCT,0.30,0.00,VWS V14.01,2013-03-19 02:34:00,
2013-03-18 22:39:00,36.0,35.0,30.05,ENE,67,1.0,6.0,96,0.02,,SCT,0.30,0.00,VWS V14.01,2013-03-19 02:39:00,
2013-03-18 22:44:00,36.0,35.0,30.06,ENE,67,0.0,6.0,96,0.02,,SCT,0.30,0.00,VWS V14.01,2013-03-19 02:44:00,
2013-03-18 22:49:00,36.0,35.0,30.04,WNW,296,3.0,7.0,96,0.02,,SCT,0.30,0.00,VWS V14.01,2013-03-19 02:49:00,
2013-03-18 22:54:00,36.1,35.1,30.05,NNW,327,3.0,4.0,96,0.00,,SCT,0.30,0.00,VWS V14.01,2013-03-19 02:54:00,
2013-03-18 22:59:00,36.2,35.2,30.06,NNW,327,0.0,4.0,96,0.01,,SCT,0.31,0.00,VWS V14.01,2013-03-19 02:59:00,
2013-03-18 23:00:00,36.1,35.1,30.05,NW,326,4.0,7.0,96,0.02,,SCT,0.30,0.00,VWS V14.01,2013-03-19 03:00:00,
2013-03-18 23:04:00,36.2,35.2,30.05,NNW,327,0.0,4.0,96,0.01,,SCT,0.31,0.00,VWS V14.01,2013-03-19 03:04:00,
2013-03-18 23:09:00,36.2,35.2,30.05,NNW,327,0.0,4.0,96,0.01,,SCT,0.31,0.00,VWS V14.01,2013-03-19 03:09:00,
2013-03-18 23:14:00,36.3,35.3,30.05,NNW,328,0.0,4.0,96,0.01,,SCT,0.31,0.00,VWS V14.01,2013-03-19 03:14:00,
2013-03-18 23:19:00,36.4,35.4,30.05,ENE,77,3.0,4.0,96,0.01,,SCT,0.31,0.00,VWS V14.01,2013-03-19 03:19:00,
2013-03-18 23:24:00,36.3,35.3,30.05,East,88,4.0,4.0,96,0.01,,SCT,0.31,0.00,VWS V14.01,2013-03-19 03:24:00,
2013-03-18 23:29:00,36.4,35.4,30.07,ENE,74,5.0,7.0,96,0.01,,SCT,0.31,0.00,VWS V14.01,2013-03-19 03:29:00,
2013-03-18 23:34:00,36.4,35.4,30.08,ENE,74,5.0,8.0,96,0.01,,SCT,0.31,0.00,VWS V14.01,2013-03-19 03:34:00,
2013-03-18 23:39:00,36.4,35.4,30.07,NE,44,3.0,8.0,96,0.01,,SCT,0.31,0.00,VWS V14.01,2013-03-19 03:39:00,
2013-03-18 23:44:00,36.3,35.3,30.06,NNW,343,2.0,8.0,96,0.01,,SCT,0.31,0.00,VWS V14.01,2013-03-19 03:44:00,
2013-03-18 23:49:00,36.2,35.2,30.04,NW,319,5.0,8.0,96,0.01,,SCT,0.31,0.00,VWS V14.01,2013-03-19 03:49:00,
2013-03-18 23:54:00,36.2,35.2,30.04,NNW,330,2.0,4.0,96,0.01,,SCT,0.00,0.00,VWS V14.01,2013-03-19 03:54:00,
2013-03-18 23:59:00,36.2,35.2,30.04,NNW,331,2.0,4.0,96,0.01,,SCT,0.00,0.00,VWS V14.01,2013-03-19 03:59:00,